Elkins, WV

1:04 PM EST on February 08, 2016 (GMT -0500)
Elkins-Randolph County

Weather History for KEKN - July, 2014

Change the Weather History Date:

Thursday, July 24, 2014

  Actual Average Record
Temperature  
Mean Temperature 64 °F 70 °F  
Max Temperature 71 °F 81 °F 95 °F (1934)
Min Temperature 56 °F 59 °F 39 °F (1947)
Degree Days  
Heating Degree Days 1 0  
Month to date heating degree days 18 8  
Since 1 June heating degree days 32 63  
Since 1 July heating degree days 18 8  
Cooling Degree Days 0 5  
Month to date cooling degree days 124 122  
Year to date cooling degree days 305 237  
Since 1 June cooling degree days 269 214  
Growing Degree Days 13 (Base 50)    
Moisture  
Dew Point 62 °F    
Average Humidity 80    
Maximum Humidity 93    
Minimum Humidity 66    
Precipitation  
Precipitation 0.58 in 0.16 in 3.97 in (1912)
Month to date precipitation 3.94 4.23  
Year to date precipitation 23.80 27.84  
Snow  
Snow 0.00 in - - ()
Month to date snowfall 0.0  
Since 1 September snowfall 92.3  
Snow Depth 0.00 in    
Sea Level Pressure  
Sea Level Pressure 30.00 in    
Wind  
Wind Speed 3 mph (NNW)    
Max Wind Speed 10 mph    
Max Gust Speed 13 mph    
Visibility 6 miles    
Events Rain    
T = Trace of Precipitation, MM = Missing Value Source: NWS Daily Summary

Daily Weather History Graph

Daily Weather History Graph

Search for Another Location

Airport or City:

Trip Planner

Search our weather history database for the weather conditions in past years. The results will help you decide how hot, cold, wet, or windy it might be!

Date:

Astronomy

Jul. 24, 2014 Rise Set
Actual Time 6:13 AM EDT 8:37 PM EDT
Civil Twilight 5:43 AM EDT 9:08 PM EDT
Nautical Twilight 5:05 AM EDT 9:45 PM EDT
Astronomical Twilight 4:23 AM EDT 10:27 PM EDT
Moon 4:19 AM EDT (7/24) 6:52 PM EDT (7/24)
Length of Visible Light 15h 25m
Length of Day
14h 24m
Waning Crescent, 5% of the Moon is Illuminated
Jul 24
Waning Crescent
Jul 26
New
Aug 3
First Quarter
Aug 10
Full
Aug 17
Last Quarter

Hourly Weather History & Observations

Time (EDT) Temp. Dew Point Humidity Pressure Visibility Wind Dir Wind Speed Gust Speed Precip Events Conditions
12:27 AM 68.0 °F 66.0 °F 93% 30.02 in 6.0 mi Calm Calm - 0.01 in Rain Light Rain
12:48 AM 68.0 °F 66.2 °F 94% 30.02 in 8.0 mi Calm Calm - 0.01 in Rain Light Rain
12:51 AM 68.0 °F 66.0 °F 93% 29.98 in 8.0 mi Calm Calm - 0.01 in Rain Light Rain
1:12 AM 68.0 °F 64.9 °F 90% 30.01 in 7.0 mi Calm Calm - 0.01 in Rain Light Rain
1:37 AM 68.0 °F 64.9 °F 90% 30.01 in 7.0 mi Calm Calm - 0.01 in   Mostly Cloudy
1:51 AM 68.0 °F 66.0 °F 93% 29.96 in 6.0 mi Calm Calm - 0.01 in   Overcast
2:27 AM 68.0 °F 64.9 °F 90% 29.98 in 8.0 mi Calm Calm - 0.00 in Rain Light Rain
2:51 AM 69.1 °F 64.9 °F 87% 29.94 in 10.0 mi Calm Calm - 0.00 in   Overcast
3:04 AM 69.1 °F 64.9 °F 87% 29.99 in 10.0 mi Calm Calm - N/A   Overcast
3:18 AM 68.0 °F 64.9 °F 90% 29.99 in 2.5 mi NNW 10.4 mph - 0.03 in Rain Heavy Rain
3:21 AM 68.0 °F 64.9 °F 90% 29.99 in 1.5 mi North 10.4 mph - 0.06 in Rain Heavy Rain
3:25 AM 68.0 °F 64.9 °F 90% 29.99 in 0.8 mi North 6.9 mph - 0.21 in Rain Heavy Rain
3:38 AM 66.9 °F 64.9 °F 93% 29.98 in 1.2 mi Calm Calm - 0.55 in Rain Heavy Rain
3:42 AM 66.9 °F 64.9 °F 93% 29.98 in 2.0 mi North 3.5 mph - 0.55 in Rain Light Rain
3:49 AM 66.2 °F 64.4 °F 94% 29.98 in 5.0 mi North 3.5 mph - 0.56 in Rain Light Rain
3:51 AM 66.9 °F 64.0 °F 90% 29.94 in 5.0 mi NNW 4.6 mph - 0.56 in Rain Light Rain
4:20 AM 66.9 °F 64.9 °F 93% 29.98 in 6.0 mi Calm Calm - 0.00 in   Overcast
4:51 AM 66.9 °F 64.0 °F 90% 29.94 in 7.0 mi Calm Calm - 0.00 in   Overcast
5:51 AM 66.9 °F 64.0 °F 90% 29.96 in 7.0 mi NW 4.6 mph - N/A   Overcast
6:12 AM 66.0 °F 63.0 °F 90% 29.98 in 6.0 mi North 4.6 mph - 0.00 in   Overcast
6:21 AM 64.9 °F 62.1 °F 90% 29.98 in 6.0 mi NNW 5.8 mph - 0.00 in   Overcast
6:51 AM 64.9 °F 62.1 °F 90% 29.95 in 5.0 mi NNW 3.5 mph - 0.00 in   Overcast
7:41 AM 64.0 °F 61.0 °F 90% 30.00 in 7.0 mi NW 3.5 mph - N/A   Overcast
7:51 AM 64.0 °F 61.0 °F 90% 29.97 in 7.0 mi NW 3.5 mph - N/A   Overcast
8:51 AM 64.9 °F 61.0 °F 87% 29.99 in 6.0 mi NNW 3.5 mph - 0.00 in Rain Light Rain
9:51 AM 66.0 °F 62.1 °F 87% 29.98 in 8.0 mi Calm Calm - 0.00 in   Overcast
10:51 AM 66.9 °F 62.1 °F 84% 29.99 in 8.0 mi North 5.8 mph - N/A   Overcast
11:51 AM 64.9 °F 62.1 °F 90% 30.00 in 6.0 mi North 5.8 mph - 0.01 in Rain Light Rain
12:07 PM 66.0 °F 62.1 °F 87% 30.02 in 9.0 mi North 5.8 mph - 0.00 in   Overcast
12:51 PM 66.0 °F 62.1 °F 87% 29.99 in 4.0 mi North 5.8 mph - 0.00 in Rain Light Rain
1:15 PM 66.0 °F 62.1 °F 87% 30.01 in 7.0 mi North 3.5 mph - 0.00 in   Overcast
1:28 PM 66.0 °F 62.1 °F 87% 30.01 in 6.0 mi NNW 4.6 mph - 0.00 in   Overcast
1:42 PM 66.0 °F 62.1 °F 87% 30.01 in 7.0 mi North 3.5 mph - 0.00 in   Overcast
1:51 PM 66.0 °F 61.0 °F 84% 30.00 in 7.0 mi North 6.9 mph - 0.00 in   Overcast
2:14 PM 66.0 °F 61.0 °F 84% 30.02 in 6.0 mi NNW 4.6 mph - N/A   Haze
2:51 PM 66.9 °F 61.0 °F 81% 30.00 in 7.0 mi North 5.8 mph - N/A   Overcast
3:28 PM 66.0 °F 60.1 °F 81% 30.02 in 8.0 mi NNW 4.6 mph - 0.00 in   Overcast
3:51 PM 66.0 °F 60.1 °F 81% 30.00 in 9.0 mi NW 5.8 mph - 0.00 in   Overcast
4:21 PM 68.0 °F 60.1 °F 76% 30.00 in 10.0 mi North 4.6 mph - N/A   Overcast
4:51 PM 69.1 °F 60.1 °F 73% 29.99 in 10.0 mi North 5.8 mph - N/A   Overcast
5:25 PM 69.1 °F 59.0 °F 70% 30.01 in 10.0 mi WNW 6.9 mph - N/A   Overcast
5:51 PM 69.1 °F 59.0 °F 70% 29.98 in 10.0 mi WNW 4.6 mph - N/A   Mostly Cloudy
6:51 PM 70.0 °F 57.0 °F 63% 29.99 in 10.0 mi NW 4.6 mph - N/A   Overcast
7:51 PM 70.0 °F 57.0 °F 63% 29.99 in 10.0 mi West 3.5 mph - N/A   Clear
8:51 PM 61.0 °F 57.9 °F 90% 30.01 in 7.0 mi Calm Calm - N/A   Clear
9:51 PM 59.0 °F 57.0 °F 93% 30.04 in 6.0 mi Calm Calm - N/A   Clear
10:42 PM 57.0 °F 54.0 °F 89% 30.06 in 1.8 mi Calm Calm - N/A   Clear
10:51 PM 55.9 °F 54.0 °F 93% 30.06 in 2.0 mi Calm Calm - N/A   Clear
10:58 PM 55.9 °F 54.0 °F 93% 30.07 in 3.0 mi Calm Calm - N/A   Clear
11:51 PM 57.0 °F 54.0 °F 89% 30.08 in 5.0 mi Calm Calm - N/A   Partly Cloudy